Location: Unspecified
(0.0000°N, 0.0000°E)
Time: 18:08:54
(UTC+00:00)

Vanguard 3 - All Passes

Search period start: 05 December 2025 00:00
Search period end: 15 December 2025 00:00
Orbit: 507 x 3208 km, 33.3° (Epoch: 04 December)

Date Brightness Start Highest point End Pass type
(mag) Time Alt. Az. Time Alt. Az. Time Alt. Az.
05 Dec - 00:41:42 10° W 00:50:38 48° SSW 01:05:42 10° SE visible
05 Dec - 02:57:40 10° WSW 03:08:08 23° SSW 03:21:31 10° SSE visible
05 Dec - 05:18:58 10° SW 05:29:53 17° S 05:40:52 10° SE visible
05 Dec - 07:37:05 10° SSW 07:51:31 26° SSE 08:02:50 10° ESE daylight
05 Dec - 09:52:49 10° SW 10:09:00 54° SSE 10:18:33 10° ENE daylight
05 Dec - 12:10:14 10° WSW 12:22:13 49° NW 12:29:02 10° NNE daylight
05 Dec - 21:12:02 10° N 21:16:18 21° NE 21:22:20 10° E night (unlit)
05 Dec - 23:20:22 10° WNW 23:27:34 78° SW 23:40:52 10° SE visible
06 Dec - 01:33:21 10° W 01:42:42 30° SSW 01:56:37 10° SSE visible
06 Dec - 03:52:18 10° SW 04:02:17 18° S 04:13:43 10° SSE visible
06 Dec - 06:12:07 10° SSW 06:24:47 20° SSE 06:36:24 10° SE daylight
06 Dec - 08:28:05 10° SW 08:44:32 38° SSE 08:55:53 10° E daylight
06 Dec - 10:44:19 10° SW 11:00:04 89° SE 11:08:47 10° NE daylight
06 Dec - 13:04:18 10° W 13:11:53 22° NW 13:17:07 10° N daylight
06 Dec - 22:00:08 10° NW 22:05:48 53° NE 22:15:44 10° ESE night (unlit)
07 Dec - 00:10:45 10° W 00:18:37 44° SSW 00:32:01 10° SE visible
07 Dec - 02:26:32 10° WSW 02:35:44 21° SSW 02:47:43 10° SSE visible
07 Dec - 04:46:42 10° SSW 04:57:11 17° S 05:08:12 10° SE visible
07 Dec - 07:03:36 10° SSW 07:18:50 27° SSE 07:31:19 10° ESE daylight
07 Dec - 09:19:06 10° SW 09:36:37 58° SSE 09:47:21 10° ENE daylight
07 Dec - 11:36:49 10° WSW 11:50:18 50° NW 11:58:02 10° NNE daylight
07 Dec - 20:41:16 10° N 20:44:51 19° NE 20:49:41 10° E night (unlit)
07 Dec - 22:49:28 10° WNW 22:55:50 73° SSW 23:07:30 10° SE visible
08 Dec - 01:02:25 10° WSW 01:10:35 27° SSW 01:22:44 10° SSE visible
08 Dec - 03:20:56 10° SW 03:29:45 17° S 03:40:07 10° SSE visible
08 Dec - 05:39:13 10° SSW 05:52:00 21° SSE 06:04:18 10° SE daylight
08 Dec - 07:54:28 10° SW 08:11:52 40° SSE 08:24:28 10° E daylight
08 Dec - 10:10:39 10° SW 10:27:48 88° NW 10:37:37 10° NE daylight
08 Dec - 12:31:02 10° W 12:40:09 24° NW 12:46:16 10° N daylight
08 Dec - 21:29:15 10° NW 21:34:16 52° NE 21:42:50 10° ESE night (unlit)
08 Dec - 23:39:53 10° W 23:46:46 39° SSW 23:58:23 10° SE visible
09 Dec - 01:55:37 10° SW 02:03:28 19° S 02:13:42 10° SSE visible
09 Dec - 04:14:42 10° SSW 04:24:30 17° S 04:35:11 10° SE visible
09 Dec - 06:30:19 10° SSW 06:45:58 29° SSE 06:59:31 10° ESE daylight
09 Dec - 08:45:24 10° SW 09:04:00 61° SSE 09:16:00 10° ENE daylight
09 Dec - 11:03:15 10° WSW 11:18:12 52° NW 11:26:56 10° NE daylight
09 Dec - 20:10:29 10° N 20:13:28 17° NE 20:17:16 10° E night (unlit)
09 Dec - 22:18:36 10° WNW 22:24:13 67° SSW 22:34:17 10° SE visible
10 Dec - 00:31:37 10° WSW 00:38:36 23° SSW 00:48:50 10° SSE visible
10 Dec - 02:49:51 10° SSW 02:57:19 15° S 03:06:11 10° SSE visible
10 Dec - 05:06:34 10° SSW 05:19:08 21° SSE 05:31:53 10° ESE visible
10 Dec - 07:20:59 10° SW 07:38:58 42° SSE 07:52:48 10° E daylight
10 Dec - 09:36:56 10° SW 09:55:16 87° NW 10:06:18 10° NE daylight
10 Dec - 11:57:34 10° W 12:08:13 27° NW 12:15:17 10° NNE daylight
10 Dec - 20:58:21 10° NW 21:02:50 52° NE 21:10:09 10° ESE night (unlit)
10 Dec - 23:09:05 10° W 23:15:05 33° SSW 23:24:51 10° SE visible
11 Dec - 01:24:58 10° SW 01:31:20 16° S 01:39:28 10° SSE visible
11 Dec - 03:42:59 10° SSW 03:51:51 16° S 04:01:50 10° SE visible
11 Dec - 05:57:16 10° SSW 06:12:58 30° SSE 06:27:26 10° ESE daylight
11 Dec - 08:11:48 10° SW 08:31:07 64° SSE 08:44:25 10° ENE daylight
11 Dec - 10:29:33 10° WSW 10:45:50 53° NW 10:55:40 10° NE daylight
11 Dec - 12:55:41 10° NW 12:58:34 11° NW 13:01:07 10° NNW daylight
11 Dec - 19:39:35 10° N 19:42:05 15° NE 19:45:05 10° ENE night (unlit)
11 Dec - 21:47:44 10° WNW 21:52:43 60° SSW 22:01:18 10° SE night (unlit)
12 Dec - 00:01:00 10° WSW 00:06:47 20° SSW 00:14:55 10° SSE visible
12 Dec - 02:19:09 10° SSW 02:25:00 13° S 02:31:51 10° SSE visible
12 Dec - 04:34:09 10° SSW 04:46:15 21° SSE 04:59:09 10° ESE visible
12 Dec - 06:47:41 10° SW 07:05:52 44° SSE 07:20:54 10° E daylight
12 Dec - 09:03:15 10° SW 09:22:29 85° NW 09:34:48 10° NE daylight
12 Dec - 11:23:56 10° W 11:36:05 29° NW 11:44:10 10° NNE daylight
12 Dec - 20:27:24 10° NW 20:31:29 52° NE 20:37:42 10° ESE night (unlit)
12 Dec - 22:38:21 10° W 22:43:30 28° SSW 22:51:28 10° SSE visible
13 Dec - 00:54:43 10° SSW 00:59:20 13° S 01:04:57 10° SSE visible
13 Dec - 03:11:31 10° SSW 03:19:16 15° SSE 03:28:09 10° SE visible
13 Dec - 05:24:26 10° SSW 05:39:52 30° SSE 05:55:03 10° E visible
13 Dec - 07:38:20 10° SW 07:58:00 66° SE 08:12:37 10° ENE daylight
13 Dec - 09:55:50 10° WSW 10:13:13 53° NW 10:24:15 10° NE daylight
13 Dec - 12:21:27 10° WNW 12:26:41 13° NW 12:30:58 10° N daylight
13 Dec - 19:08:34 10° N 19:10:43 14° NE 19:13:08 10° ENE visible
13 Dec - 21:16:52 10° WNW 21:21:18 52° SSW 21:28:30 10° SE night (unlit)
13 Dec - 23:30:36 10° SW 23:35:04 16° SSW 23:40:58 10° SSE visible
14 Dec - 01:49:08 10° SSW 01:52:47 11° S 01:56:52 10° SSE visible
14 Dec - 04:01:58 10° SSW 04:13:21 20° SSE 04:26:06 10° ESE visible
14 Dec - 06:14:35 10° SW 06:32:36 45° SSE 06:48:43 10° E daylight
14 Dec - 08:29:39 10° SW 08:49:27 84° NW 09:03:06 10° NE daylight
14 Dec - 10:50:12 10° W 11:03:44 30° NW 11:12:53 10° NNE daylight
14 Dec - 19:56:24 10° NW 20:00:10 53° NE 20:05:30 10° ESE visible
14 Dec - 22:07:42 10° WSW 22:12:00 23° SSW 22:18:15 10° SSE visible
